This is the latest recevied weather packets stored in our database for station/object SQ7IQO. If no packets are shown the sender has not sent any weather packets the latest 10 day(s).
| Time | Temp. | Humidity | Pressure | Rain* | Wind** | Luminosity | Snow |
|---|---|---|---|---|---|---|---|
| 1787998361 | 20.56° C | 80% | 1015.1 hPa | 0 mm | 0.89 m/s, ° | - | - |
| 1787998301 | 21.11° C | 78% | 1015.1 hPa | 0 mm | 0.89 m/s, ° | - | - |
| 1787998241 | 21.11° C | 81% | 1015 hPa | 0 mm | 0.89 m/s, ° | - | - |
| 1787998181 | 20.56° C | 83% | 1015.1 hPa | 0 mm | 0 m/s | - | - |
| 1787998121 | 20° C | 83% | 1015.2 hPa | 0 mm | 0 m/s | - | - |
| 1787998061 | 20° C | 83% | 1015.2 hPa | 0 mm | 0.45 m/s, ° | - | - |
| 1787998001 | 20° C | 83% | 1015.2 hPa | 0 mm | 0.89 m/s, ° | - | - |
| 1787997942 | 20° C | 83% | 1015.2 hPa | 0 mm | 0.89 m/s, ° | - | - |
| 1787997881 | 20° C | 83% | 1015.2 hPa | 0 mm | 1.34 m/s, ° | - | - |
| 1787997821 | 20° C | 83% | 1015.2 hPa | 0 mm | 1.34 m/s, ° | - | - |
| 1787997761 | 20° C | 85% | 1015.3 hPa | 0 mm | 0.89 m/s, ° | - | - |
| 1787997701 | 20° C | 84% | 1015.2 hPa | 0 mm | 0.45 m/s, ° | - | - |
| 1787997641 | 20° C | 84% | 1015.2 hPa | 0 mm | 0.89 m/s, ° | - | - |
| 1787997581 | 20° C | 84% | 1015.1 hPa | 0 mm | 1.34 m/s, ° | - | - |
| 1787997521 | 20° C | 83% | 1015.2 hPa | 0 mm | 1.79 m/s, ° | - | - |
| 1787997461 | 20° C | 84% | 1015.2 hPa | 0 mm | 0.89 m/s, ° | - | - |
| 1787997401 | 20° C | 84% | 1015.1 hPa | 0 mm | 1.79 m/s, ° | - | - |
| 1787997341 | 20.56° C | 82% | 1015.1 hPa | 0 mm | 1.79 m/s, ° | - | - |
| 1787997281 | 20.56° C | 80% | 1015.1 hPa | 0 mm | 1.34 m/s, ° | - | - |
| 1787997221 | 20.56° C | 81% | 1015.1 hPa | 0 mm | 0.89 m/s, ° | - | - |
| 1787997161 | 20.56° C | 81% | 1015.1 hPa | 0 mm | 1.34 m/s, ° | - | - |
| 1787997101 | 20.56° C | 81% | 1011.8 hPa | 0 mm | 0.89 m/s, ° | - | - |
| 1787997041 | 20.56° C | 83% | 1015.1 hPa | 0 mm | 0.89 m/s, ° | - | - |
| 1787996981 | 20° C | 82% | 1015.1 hPa | 0 mm | 0.89 m/s, ° | - | - |
| 1787996921 | 20.56° C | 84% | 1015.1 hPa | 0 mm | 1.79 m/s, ° | - | - |
* Rain latest hour (hover to see other rain measurements)
** Current wind speed in m/s (hover to see current wind gust speed)